MB7UEL Weather Reports


Display with metric or nautical units.
time (UTC)temp
F
wind
direction
speed
MPH
gust
MPH
rain 1hr
in
rain 24hr
in
rain mn
in
humidity
%
barometer
mb
20260905023506 56 259 22.0 30.0 0.00 0.06 0.00 1013.0
20260905020506 56 259 22.0 30.0 0.00 0.06 0.00 1013.0
20260905013506 56 256 23.0 32.0 0.00 0.06 0.00 1012.0
20260905010506 56 256 23.0 32.0 0.00 0.06 0.00 1012.0
20260905003506 57 255 24.0 33.0 0.00 0.06 0.00 1011.0
20260905000506 57 252 23.0 32.0 0.00 0.06 0.00 1011.0
20260904233506 57 252 23.0 32.0 0.00 0.06 0.00 1010.0
20260904230506 57 252 23.0 32.0 0.00 0.06 0.00 1010.0
20260904223505 57 247 23.0 32.0 0.00 0.06 0.00 1010.0
20260904220506 57 247 23.0 32.0 0.00 0.06 0.00 1010.0
20260904213505 58 251 24.0 32.0 0.00 0.06 0.00 1010.0
20260904210505 58 251 24.0 32.0 0.00 0.06 0.00 1010.0
20260904203505 59 251 22.0 30.0 0.00 0.06 0.00 1009.0
20260904200505 59 251 22.0 30.0 0.00 0.06 0.00 1009.0
20260904193505 59 253 24.0 32.0 0.00 0.06 0.00 1009.0
20260904190505 59 253 24.0 32.0 0.00 0.06 0.00 1008.0
20260904183505 60 255 26.0 35.0 0.00 0.06 0.00 1007.0
20260904180505 60 251 27.0 36.0 0.00 0.06 0.00 1007.0
20260904173506 60 252 26.0 35.0 0.00 0.06 0.00 1006.0
20260904170506 60 252 26.0 35.0 0.00 0.06 0.00 1006.0
20260904163506 60 255 27.0 36.0 0.00 0.06 0.00 1006.0
20260904160506 60 255 27.0 36.0 0.00 0.06 0.00 1006.0
20260904153506 61 257 28.0 38.0 0.00 0.06 0.00 1005.0
20260904150506 61 257 28.0 38.0 0.00 0.06 0.00 1005.0
20260904143506 60 258 28.0 38.0 0.00 0.06 0.00 1005.0
20260904140506 60 258 28.0 38.0 0.00 0.06 0.00 1005.0
20260904133505 61 257 28.0 39.0 0.00 0.06 0.00 1004.0
20260904130506 61 257 28.0 39.0 0.00 0.06 0.00 1004.0
20260904123505 60 255 31.0 42.0 0.00 0.06 0.00 1003.0
20260904120505 60 252 28.0 37.0 0.00 0.06 0.00 1003.0
20260904113505 59 249 30.0 40.0 0.00 0.06 0.00 1002.0
20260904110505 59 249 30.0 40.0 0.00 0.06 0.00 1002.0
20260904103505 59 246 29.0 39.0 0.00 0.06 0.00 1002.0
20260904100505 59 246 29.0 39.0 0.00 0.06 0.00 1002.0
20260904093505 58 238 25.0 34.0 0.00 0.06 0.00 1002.0
20260904090505 58 238 25.0 34.0 0.00 0.18 0.00 1002.0
20260904083506 57 240 24.0 33.0 0.00 0.18 0.00 1003.0
20260904080506 57 240 24.0 33.0 0.00 0.18 0.00 1003.0
20260904073506 57 248 23.0 31.0 0.00 0.18 0.00 1002.0
20260904070506 57 248 23.0 31.0 0.00 0.18 0.00 1002.0
20260904063506 58 247 19.0 25.0 0.00 0.18 0.00 1003.0
20260904060506 57 239 16.0 22.0 0.00 0.18 0.00 1002.0
20260904053506 58 238 17.0 22.0 0.00 0.18 0.00 1003.0
20260904050506 58 238 17.0 22.0 0.00 0.18 0.00 1003.0
20260904043505 59 246 18.0 23.0 0.00 0.18 0.00 1003.0
20260904040505 59 246 18.0 23.0 0.00 0.18 0.00 1003.0
20260904033505 59 241 16.0 21.0 0.00 0.18 0.00 1003.0
20260904030505 59 241 16.0 21.0 0.00 0.18 0.00 1003.0